Weather History for Chino, CA

Change the Weather History Date:

Monday, May 27, 2013

  Actual Average Record
Temperature  
Mean Temperature 67 °F -  
Max Temperature 82 °F 78 °F 100 °F (2000)
Min Temperature 53 °F 51 °F 44 °F (1998)
Cooling Degree Days 2    
Growing Degree Days 17 (Base 50)    
Moisture  
Dew Point 52 °F    
Average Humidity 67    
Maximum Humidity 94    
Minimum Humidity 35    
Precipitation  
Precipitation 0.00 in - - ()
Sea Level Pressure  
Sea Level Pressure 29.93 in    
Wind  
Wind Speed 4 mph (WSW)    
Max Wind Speed 20 mph    
Max Gust Speed 24 mph    
Visibility 9 miles    
Events      
Averages and records for this station are not official NWS values.
T = Trace of Precipitation, MM = Missing Value Source: NWS Daily Summary

Daily Weather History Graph

Daily Weather History Graph

Search for Another Location

Airport:

Trip Planner

Search our weather history database for the weather conditions in past years. The results will help you decide how hot, cold, wet, or windy it might be!

Date:

Astronomy

May. 27, 2013 Rise Set
Actual Time 5:42 AM PDT 7:53 PM PDT
Civil Twilight 5:13 AM PDT 8:22 PM PDT
Nautical Twilight 4:38 AM PDT 8:57 PM PDT
Astronomical Twilight 4:01 AM PDT 9:34 PM PDT
Moon 10:40 PM PDT (5/27) 8:22 AM PDT (5/27)
Length of Visible Light 15h 08m
Length of Day
14h 11m
Waning Gibbous, 90% of the Moon is Illuminated
May 27
Waning Gibbous
May 31
Last Quarter
Jun 8
New
Jun 16
First Quarter
Jun 23
Full

Hourly Weather History & Observations

Time (PDT) Temp. Dew Point Humidity Pressure Visibility Wind Dir Wind Speed Gust Speed Precip Events Conditions
12:53 AM 57.9 °F 50.0 °F 75% 30.00 in 8.0 mi Calm Calm - N/A   Clear
1:53 AM 55.9 °F 50.0 °F 80% 30.00 in 8.0 mi West 4.6 mph - N/A   Clear
2:53 AM 55.0 °F 51.1 °F 86% 29.99 in 7.0 mi Calm Calm - N/A   Clear
3:53 AM 55.0 °F 51.1 °F 86% 29.98 in 7.0 mi Calm Calm - N/A   Partly Cloudy
4:17 AM 53.6 °F 51.8 °F 94% 29.98 in 7.0 mi Calm Calm - N/A   Mostly Cloudy
4:26 AM 55.4 °F 51.8 °F 88% 29.98 in 6.0 mi Calm Calm - N/A   Mostly Cloudy
4:53 AM 57.0 °F 53.1 °F 87% 29.96 in 7.0 mi Calm Calm - N/A   Overcast
5:53 AM 55.9 °F 51.1 °F 84% 29.96 in 5.0 mi Calm Calm - N/A   Haze
6:03 AM 53.6 °F 50.0 °F 88% 29.97 in 5.0 mi Calm Calm - N/A   Scattered Clouds
6:53 AM 55.9 °F 52.0 °F 87% 29.96 in 10.0 mi SW 5.8 mph - N/A   Partly Cloudy
7:53 AM 61.0 °F 52.0 °F 72% 29.97 in 10.0 mi West 4.6 mph - N/A   Partly Cloudy
8:53 AM 64.0 °F 52.0 °F 65% 29.97 in 10.0 mi West 5.8 mph - N/A   Partly Cloudy
9:53 AM 68.0 °F 51.1 °F 55% 29.96 in 10.0 mi West 5.8 mph - N/A   Scattered Clouds
10:53 AM 71.1 °F 51.1 °F 49% 29.96 in 10.0 mi Variable 5.8 mph - N/A   Partly Cloudy
11:53 AM 73.9 °F 51.1 °F 45% 29.94 in 10.0 mi Variable 5.8 mph - N/A   Clear
12:53 PM 77.0 °F 50.0 °F 39% 29.92 in 10.0 mi Variable 6.9 mph - N/A   Partly Cloudy
1:53 PM 79.0 °F 50.0 °F 36% 29.89 in 10.0 mi Calm Calm - N/A   Partly Cloudy
2:53 PM 81.0 °F 51.1 °F 35% 29.87 in 10.0 mi WSW 15.0 mph 21.9 mph N/A   Partly Cloudy
3:53 PM 79.0 °F 53.1 °F 40% 29.87 in 10.0 mi SW 19.6 mph 24.2 mph N/A   Partly Cloudy
4:53 PM 75.9 °F 54.0 °F 46% 29.87 in 10.0 mi WSW 18.4 mph - N/A   Mostly Cloudy
5:53 PM 71.1 °F 54.0 °F 55% 29.87 in 10.0 mi WSW 16.1 mph - N/A   Mostly Cloudy
6:53 PM 70.0 °F 54.0 °F 57% 29.86 in 10.0 mi WSW 15.0 mph - N/A   Mostly Cloudy
7:53 PM 68.0 °F 54.0 °F 61% 29.87 in 10.0 mi West 9.2 mph - N/A   Mostly Cloudy
8:53 PM 64.9 °F 53.1 °F 65% 29.87 in 9.0 mi West 6.9 mph - N/A   Clear
9:53 PM 63.0 °F 54.0 °F 72% 29.89 in 9.0 mi West 5.8 mph - N/A   Clear
10:53 PM 62.1 °F 55.0 °F 78% 29.90 in 8.0 mi West 8.1 mph - N/A   Clear
11:53 PM 60.1 °F 55.0 °F 83% 29.89 in 8.0 mi West 8.1 mph - N/A   Clear